{"data":{"norad_id":67685,"intl_designator":"1998-067YB","name":"GXIBA-1","alt_names":[],"object_type":"PAYLOAD","status":"ACTIVE","operator":null,"country":"MEX","launch_date":"1998-11-20","launch_site_code":"TYMSC","launch_vehicle":null,"mission":null,"orbit_class":"UNKNOWN","rcs_meters":null,"size_class":null,"mass_kg":null,"dimensions":null,"purposes":["station"],"wikipedia_slug":null,"has_3d_model":false,"image_url":null,"decayed_at":null,"tle_current":{"epoch":"2026-09-19T11:31:25.618368Z","epoch_age_seconds":102488,"freshness":"FRESH","line1":"1 67685U 98067YB  26262.48015762  .00085832  00000+0  59955-3 0  9994","line2":"2 67685  51.6228 174.3941 0008976 180.7732 179.3254 15.73504864 35074","mean_motion":15.73504864,"eccentricity":0.0008976,"inclination_deg":51.6228,"raan_deg":174.3941,"arg_perigee_deg":180.7732,"mean_anomaly_deg":179.3254,"bstar":0.00059955,"rev_number":3507,"period_min":91.515446373606,"perigee_km":342.85095446393,"apogee_km":354.92731177811,"semimajor_km":6727.026133121,"source":"CELESTRAK","updated_at":"2026-09-20T09:00:28.695112Z"}}}